Terug naar catalogus

HAWK-7B

ActiefMilitairSSO
NORAD 56193·PAYLOAD·🇺🇸 United States

Gelanceerd Apr 15, 2023 vanaf Vandenberg Space Force Base

Loading…

Volgende Passages (komende 24 uur)

TLE

VersSource: Space-Track

Epoch: Sep 14, 2026, 10:45 UTC

1 56193U 23054R   26257.44808740  .00004506  00000-0  16673-3 0  9996
2 56193  97.2571 140.7919 0003821  91.3400 268.8278 15.28169029190654

Volg HAWK-7B in realtime met AllMySat

Download on the App Store